| time (UTC) | temp F | wind direction | speed MPH | gust MPH | rain 1hr in | rain 24hr in | rain mn in | humidity % | barometer mb |
| 20260504045032 | 55 | 0.0 | 0.0 | 0.00 | 0.00 | 0.00 | 46 | 1002.3 | |
| 20260504044533 | 55 | 0.0 | 0.0 | 0.00 | 0.00 | 0.00 | 46 | 1002.2 | |
| 20260504043533 | 54 | 0.0 | 0.0 | 0.00 | 0.00 | 0.00 | 47 | 1002.4 | |
| 20260504043035 | 54 | 0.0 | 0.0 | 0.00 | 0.00 | 0.00 | 47 | 1002.5 | |
| 20260504042534 | 54 | 0.0 | 0.0 | 0.00 | 0.00 | 0.00 | 48 | 1002.6 | |
| 20260504042034 | 54 | 0.0 | 0.0 | 0.00 | 0.00 | 0.00 | 48 | 1002.7 | |
| 20260504041531 | 54 | 0.0 | 0.0 | 0.00 | 0.00 | 0.00 | 48 | 1002.7 | |
| 20260504041040 | 54 | 0.0 | 0.0 | 0.00 | 0.00 | 0.00 | 49 | 1002.9 | |
| 20260504040536 | 54 | 0.0 | 0.0 | 0.00 | 0.00 | 0.00 | 50 | 1003.0 | |
| 20260504035530 | 54 | 0.0 | 0.0 | 0.00 | 0.00 | 0.00 | 52 | 1003.3 | |
| 20260504035031 | 54 | 0.0 | 0.0 | 0.00 | 0.00 | 0.00 | 52 | 1003.4 | |
| 20260504034531 | 54 | 0.0 | 0.0 | 0.00 | 0.00 | 0.00 | 52 | 1003.5 | |
| 20260504033532 | 54 | 0.0 | 0.0 | 0.00 | 0.00 | 0.00 | 54 | 1003.7 | |
| 20260504032532 | 55 | 0.0 | 0.0 | 0.00 | 0.00 | 0.00 | 55 | 1003.8 | |
| 20260504031531 | 55 | 0.0 | 0.0 | 0.00 | 0.00 | 0.00 | 51 | 1003.8 | |
| 20260504031031 | 55 | 0.0 | 0.0 | 0.00 | 0.00 | 0.00 | 49 | 1004.0 | |
| 20260504030532 | 56 | 0.0 | 0.0 | 0.00 | 0.00 | 0.00 | 47 | 1004.0 | |
| 20260504030033 | 56 | 0.0 | 0.0 | 0.00 | 0.00 | 0.00 | 48 | 1004.0 | |
| 20260504025533 | 56 | 0.0 | 0.0 | 0.00 | 0.00 | 0.00 | 46 | 1004.1 | |
| 20260504025033 | 56 | 0.0 | 0.0 | 0.00 | 0.00 | 0.00 | 45 | 1004.1 | |
| 20260504024531 | 56 | 0.0 | 0.0 | 0.00 | 0.00 | 0.00 | 44 | 1004.1 | |
| 20260504023530 | 57 | 0.0 | 0.0 | 0.00 | 0.00 | 0.00 | 42 | 1004.1 | |
| 20260504023032 | 57 | 0.0 | 0.0 | 0.00 | 0.00 | 0.00 | 42 | 1004.1 | |
| 20260504022530 | 58 | 0.0 | 0.0 | 0.00 | 0.00 | 0.00 | 41 | 1004.2 | |
| 20260504022031 | 58 | 0.0 | 0.0 | 0.00 | 0.00 | 0.00 | 42 | 1004.1 | |
| 20260504021531 | 58 | 0.0 | 0.0 | 0.00 | 0.00 | 0.00 | 40 | 1004.2 | |
| 20260504021043 | 59 | 0.0 | 0.0 | 0.00 | 0.00 | 0.00 | 40 | 1004.2 | |
| 20260504020531 | 59 | 0.0 | 0.0 | 0.00 | 0.00 | 0.00 | 40 | 1004.2 | |
| 20260504020036 | 60 | 0.0 | 0.0 | 0.00 | 0.00 | 0.00 | 37 | 1004.1 | |
| 20260504015534 | 60 | 0.0 | 0.0 | 0.00 | 0.00 | 0.00 | 37 | 1004.2 | |
| 20260504015033 | 60 | 0.0 | 0.0 | 0.00 | 0.00 | 0.00 | 36 | 1004.2 | |
| 20260504014532 | 61 | 0.0 | 0.0 | 0.00 | 0.00 | 0.00 | 35 | 1004.2 | |
| 20260504014032 | 61 | 0.0 | 0.0 | 0.00 | 0.00 | 0.00 | 35 | 1004.3 | |
| 20260504013531 | 62 | 0.0 | 0.0 | 0.00 | 0.00 | 0.00 | 35 | 1004.3 | |
| 20260504013032 | 63 | 0.0 | 0.0 | 0.00 | 0.00 | 0.00 | 34 | 1004.3 | |
| 20260504012532 | 63 | 0.0 | 0.0 | 0.00 | 0.00 | 0.00 | 33 | 1004.4 | |
| 20260504012034 | 64 | 0.0 | 0.0 | 0.00 | 0.00 | 0.00 | 31 | 1004.3 | |
| 20260504011532 | 64 | 0.0 | 0.0 | 0.00 | 0.00 | 0.00 | 32 | 1004.5 | |
| 20260504011033 | 65 | 0.0 | 0.0 | 0.00 | 0.00 | 0.00 | 31 | 1004.4 | |
| 20260504010531 | 65 | 0.0 | 0.0 | 0.00 | 0.00 | 0.00 | 31 | 1004.5 | |
| 20260504010033 | 65 | 0.0 | 0.0 | 0.00 | 0.00 | 0.00 | 31 | 1004.5 | |
| 20260504004031 | 66 | 0.0 | 0.0 | 0.00 | 0.00 | 0.00 | 31 | 1004.4 | |
| 20260504003531 | 66 | 0.0 | 0.0 | 0.00 | 0.00 | 0.00 | 30 | 1004.5 | |
| 20260504003031 | 66 | 0.0 | 0.0 | 0.00 | 0.00 | 0.00 | 30 | 1004.5 | |
| 20260504002031 | 66 | 0.0 | 0.0 | 0.00 | 0.00 | 0.00 | 29 | 1004.6 | |
| 20260504001531 | 66 | 0.0 | 0.0 | 0.00 | 0.00 | 0.00 | 29 | 1004.6 | |
| 20260504001032 | 66 | 0.0 | 0.0 | 0.00 | 0.00 | 0.00 | 28 | 1004.6 | |
| 20260504000531 | 67 | 0.0 | 0.0 | 0.00 | 0.00 | 0.00 | 29 | 1004.6 | |
| 20260503235530 | 67 | 0.0 | 0.0 | 0.00 | 0.00 | 0.00 | 29 | 1004.7 | |
| 20260503235033 | 67 | 0.0 | 0.0 | 0.00 | 0.00 | 0.00 | 27 | 1004.5 | |
| 20260503234531 | 67 | 0.0 | 0.0 | 0.00 | 0.00 | 0.00 | 27 | 1004.6 | |
| 20260503234032 | 67 | 0.0 | 0.0 | 0.00 | 0.00 | 0.00 | 26 | 1004.6 | |
| 20260503232530 | 68 | 0.0 | 0.0 | 0.00 | 0.00 | 0.00 | 25 | 1004.7 | |
| 20260503232031 | 68 | 0.0 | 0.0 | 0.00 | 0.00 | 0.00 | 26 | 1004.8 | |
| 20260503231531 | 68 | 0.0 | 0.0 | 0.00 | 0.00 | 0.00 | 25 | 1004.8 | |
| 20260503231032 | 68 | 0.0 | 0.0 | 0.00 | 0.00 | 0.00 | 27 | 1004.8 | |
| 20260503230531 | 68 | 0.0 | 0.0 | 0.00 | 0.00 | 0.00 | 26 | 1004.8 | |
| 20260503230031 | 68 | 0.0 | 0.0 | 0.00 | 0.00 | 0.00 | 28 | 1004.9 | |
| 20260503225530 | 68 | 0.0 | 0.0 | 0.00 | 0.00 | 0.00 | 26 | 1004.9 | |
| 20260503225033 | 68 | 0.0 | 0.0 | 0.00 | 0.00 | 0.00 | 26 | 1005.0 | |
| 20260503224530 | 68 | 0.0 | 0.0 | 0.00 | 0.00 | 0.00 | 26 | 1005.0 | |
| 20260503224033 | 68 | 0.0 | 0.0 | 0.00 | 0.00 | 0.00 | 26 | 1005.0 | |
| 20260503223531 | 68 | 0.0 | 0.0 | 0.00 | 0.00 | 0.00 | 24 | 1005.0 | |
| 20260503223040 | 68 | 0.0 | 0.0 | 0.00 | 0.00 | 0.00 | 26 | 1005.0 | |
| 20260503222530 | 68 | 0.0 | 0.0 | 0.00 | 0.00 | 0.00 | 26 | 1005.1 | |
| 20260503222032 | 68 | 0.0 | 0.0 | 0.00 | 0.00 | 0.00 | 26 | 1005.0 | |
| 20260503221530 | 68 | 0.0 | 0.0 | 0.00 | 0.00 | 0.00 | 27 | 1005.0 | |
| 20260503221032 | 68 | 0.0 | 0.0 | 0.00 | 0.00 | 0.00 | 26 | 1005.1 | |
| 20260503220531 | 68 | 0.0 | 0.0 | 0.00 | 0.00 | 0.00 | 27 | 1005.1 | |
| 20260503220032 | 68 | 0.0 | 0.0 | 0.00 | 0.00 | 0.00 | 26 | 1005.1 | |
| 20260503215532 | 68 | 0.0 | 0.0 | 0.00 | 0.00 | 0.00 | 26 | 1005.2 | |
| 20260503215031 | 68 | 0.0 | 0.0 | 0.00 | 0.00 | 0.00 | 27 | 1005.3 | |
| 20260503214531 | 68 | 0.0 | 0.0 | 0.00 | 0.00 | 0.00 | 26 | 1005.3 | |
| 20260503214031 | 68 | 0.0 | 0.0 | 0.00 | 0.00 | 0.00 | 26 | 1005.2 | |
| 20260503213531 | 68 | 0.0 | 0.0 | 0.00 | 0.00 | 0.00 | 27 | 1005.3 | |
| 20260503213031 | 68 | 0.0 | 0.0 | 0.00 | 0.00 | 0.00 | 27 | 1005.3 | |
| 20260503212530 | 68 | 0.0 | 0.0 | 0.00 | 0.00 | 0.00 | 25 | 1005.2 | |
| 20260503211530 | 69 | 0.0 | 0.0 | 0.00 | 0.00 | 0.00 | 27 | 1005.3 | |
| 20260503211031 | 69 | 0.0 | 0.0 | 0.00 | 0.00 | 0.00 | 29 | 1005.3 | |
| 20260503210530 | 69 | 0.0 | 0.0 | 0.00 | 0.00 | 0.00 | 29 | 1005.3 | |
| 20260503210034 | 69 | 0.0 | 0.0 | 0.00 | 0.00 | 0.00 | 27 | 1005.3 | |
| 20260503205531 | 69 | 0.0 | 0.0 | 0.00 | 0.00 | 0.00 | 28 | 1005.4 | |
| 20260503205032 | 69 | 0.0 | 0.0 | 0.00 | 0.00 | 0.00 | 27 | 1005.4 | |
| 20260503204530 | 69 | 0.0 | 0.0 | 0.00 | 0.00 | 0.00 | 29 | 1005.3 | |
| 20260503204031 | 68 | 0.0 | 0.0 | 0.00 | 0.00 | 0.00 | 27 | 1005.4 | |
| 20260503203530 | 68 | 0.0 | 0.0 | 0.00 | 0.00 | 0.00 | 27 | 1005.3 | |
| 20260503203031 | 68 | 0.0 | 0.0 | 0.00 | 0.00 | 0.00 | 27 | 1005.4 | |
| 20260503202530 | 68 | 0.0 | 0.0 | 0.00 | 0.00 | 0.00 | 29 | 1005.4 | |
| 20260503202031 | 68 | 0.0 | 0.0 | 0.00 | 0.00 | 0.00 | 28 | 1005.6 | |
| 20260503201531 | 68 | 0.0 | 0.0 | 0.00 | 0.00 | 0.00 | 28 | 1005.6 | |
| 20260503201031 | 68 | 0.0 | 0.0 | 0.00 | 0.00 | 0.00 | 27 | 1005.6 | |
| 20260503200532 | 68 | 0.0 | 0.0 | 0.00 | 0.00 | 0.00 | 30 | 1005.6 | |
| 20260503200034 | 68 | 0.0 | 0.0 | 0.00 | 0.00 | 0.00 | 30 | 1005.6 | |
| 20260503195531 | 68 | 0.0 | 0.0 | 0.00 | 0.00 | 0.00 | 28 | 1005.7 | |
| 20260503195032 | 68 | 0.0 | 0.0 | 0.00 | 0.00 | 0.00 | 28 | 1005.7 | |
| 20260503194532 | 68 | 0.0 | 0.0 | 0.00 | 0.00 | 0.00 | 28 | 1005.7 | |
| 20260503193531 | 68 | 0.0 | 0.0 | 0.00 | 0.00 | 0.00 | 29 | 1006.0 | |
| 20260503193033 | 67 | 0.0 | 0.0 | 0.00 | 0.00 | 0.00 | 26 | 1006.0 | |
| 20260503192531 | 68 | 0.0 | 0.0 | 0.00 | 0.00 | 0.00 | 26 | 1006.1 | |
| 20260503192031 | 67 | 0.0 | 0.0 | 0.00 | 0.00 | 0.00 | 28 | 1006.0 | |
| 20260503191530 | 67 | 0.0 | 0.0 | 0.00 | 0.00 | 0.00 | 29 | 1006.1 | |
| 20260503191031 | 67 | 0.0 | 0.0 | 0.00 | 0.00 | 0.00 | 30 | 1006.1 | |
| 20260503190031 | 68 | 0.0 | 0.0 | 0.00 | 0.00 | 0.00 | 30 | 1006.0 | |
| 20260503185530 | 67 | 0.0 | 0.0 | 0.00 | 0.00 | 0.00 | 33 | 1006.0 | |
| 20260503185031 | 67 | 0.0 | 0.0 | 0.00 | 0.00 | 0.00 | 37 | 1006.2 | |
| 20260503184032 | 67 | 0.0 | 0.0 | 0.00 | 0.00 | 0.00 | 35 | 1006.1 | |
| 20260503183531 | 67 | 0.0 | 0.0 | 0.00 | 0.00 | 0.00 | 35 | 1006.3 | |
| 20260503183031 | 67 | 0.0 | 0.0 | 0.00 | 0.00 | 0.00 | 36 | 1006.3 | |
| 20260503182531 | 67 | 0.0 | 0.0 | 0.00 | 0.00 | 0.00 | 35 | 1006.2 | |
| 20260503182032 | 67 | 0.0 | 0.0 | 0.00 | 0.00 | 0.00 | 37 | 1006.3 | |
| 20260503181032 | 67 | 0.0 | 0.0 | 0.00 | 0.00 | 0.00 | 39 | 1006.3 | |
| 20260503180530 | 67 | 0.0 | 0.0 | 0.00 | 0.00 | 0.00 | 39 | 1006.3 | |
| 20260503180034 | 67 | 0.0 | 0.0 | 0.00 | 0.00 | 0.00 | 39 | 1006.3 | |
| 20260503175530 | 67 | 0.0 | 0.0 | 0.00 | 0.00 | 0.00 | 40 | 1006.3 | |
| 20260503175038 | 67 | 0.0 | 0.0 | 0.00 | 0.00 | 0.00 | 40 | 1006.5 | |
| 20260503174532 | 66 | 0.0 | 0.0 | 0.00 | 0.00 | 0.00 | 40 | 1006.6 | |
| 20260503174031 | 66 | 0.0 | 0.0 | 0.00 | 0.00 | 0.00 | 41 | 1006.5 | |
| 20260503173530 | 66 | 0.0 | 0.0 | 0.00 | 0.00 | 0.00 | 40 | 1006.6 | |
| 20260503173032 | 66 | 0.0 | 0.0 | 0.00 | 0.00 | 0.00 | 43 | 1006.4 | |
| 20260503172531 | 66 | 0.0 | 0.0 | 0.00 | 0.00 | 0.00 | 42 | 1006.5 | |
| 20260503172031 | 66 | 0.0 | 0.0 | 0.00 | 0.00 | 0.00 | 40 | 1006.4 | |
| 20260503171531 | 65 | 0.0 | 0.0 | 0.00 | 0.00 | 0.00 | 41 | 1006.6 | |
| 20260503171032 | 65 | 0.0 | 0.0 | 0.00 | 0.00 | 0.00 | 41 | 1006.6 | |
| 20260503170532 | 65 | 0.0 | 0.0 | 0.00 | 0.00 | 0.00 | 41 | 1006.7 | |
| 20260503150530 | 62 | 0.0 | 0.0 | 0.00 | 0.00 | 0.00 | 47 | 1006.2 | |
| 20260503131033 | 54 | 0.0 | 0.0 | 0.00 | 0.00 | 0.00 | 55 | 1005.5 | |
| 20260503130531 | 54 | 0.0 | 0.0 | 0.00 | 0.00 | 0.00 | 56 | 1005.5 | |
| 20260503110529 | 51 | 0.0 | 0.0 | 0.00 | 0.00 | 0.00 | 55 | 1004.3 | |
| 20260503081531 | 57 | 0.0 | 0.0 | 0.00 | 0.00 | 0.00 | 49 | 1005.4 | |
| 20260503081032 | 57 | 0.0 | 0.0 | 0.00 | 0.00 | 0.00 | 49 | 1005.3 |